Location: Boncourt
(49.6160°N, 3.9448°E)
Time: 14:08:38
(UTC+00:00)

Cosmos 2237 Rocket - Pass Details

Date: 09 February 2023
Orbit: 834 x 849 km, 71.0° (Epoch: 21 March)

Event Time Altitude Azimuth Distance (km) Brightness Sun altitude
Rises 18:25:23 0° 174° (S) 3,396 5.3 -15.4°
Reaches altitude 10° 18:28:05 10° 164° (SSE) 2,467 4.5 -15.8°
Maximum altitude 18:32:56 30° 105° (ESE) 1,476 2.9 -16.6°
Enters shadow 18:34:20 27° 79° (E) 1,584 3.0 -16.8°
